Location: Unspecified
(32.3530°N, 0.0000°E)
Time: 12:27:22
(UTC+00:00)

SHIYUAN 3 (SY-3) - Visible Passes

Search period start: 04 April 2026 00:00
Search period end: 14 April 2026 00:00
Orbit: 779 x 799 km, 98.6° (Epoch: 28 March)

Date Brightness Start Highest point End Pass type
(mag) Time Alt. Az. Time Alt. Az. Time Alt. Az.
4 Apr 9.6 20:18:01 10° WSW 20:19:26 11° W 20:20:52 10° WNW visible
5 Apr 8.8 19:45:19 10° SSW 19:49:24 24° W 19:53:31 10° NW visible
6 Apr 7.6 19:14:31 10° S 19:19:28 48° W 19:24:29 10° NNW visible
7 Apr 6.5 18:44:32 10° SSE 18:49:40 82° ENE 18:54:52 10° N visible
8 Apr 9.2 19:55:58 10° SW 19:59:32 19° W 20:03:06 10° NW visible
9 Apr 8.0 19:24:48 10° SSW 19:29:34 38° W 19:34:22 10° NNW visible
10 Apr 6.7 18:54:34 10° S 18:59:43 79° WSW 19:04:55 10° NNW visible
11 Apr 9.3 20:06:53 10° SW 20:09:40 15° W 20:12:27 10° WNW visible
12 Apr 8.5 19:35:10 10° SSW 19:39:39 30° W 19:44:11 10° NW visible
13 Apr 7.1 19:04:40 10° S 19:09:46 62° WSW 19:14:55 10° NNW visible
